Regional Weather Roundup
Issued by NWS

Home | Current Version | Previous Version | Text Only | Print | Product List | Glossary Off
Versions: 1 2 3 4 5 6 7 8 9 10 11 12 13 14 15 16 17 18 19 20 21 22 23 24 25 26 27 28 29 30 31 32 33 34 35 36 37 38 39 40 41 42 43 44 45 46 47 48 49 50

000
ASUS43 KDTX 231501
RWRMI
MICHIGAN HOURLY REGIONAL WEATHER ROUNDUP
NATIONAL WEATHER SERVICE DETROIT/PONTIAC MI
1100 AM EDT THU MAR 23 2017

NOTE: "FAIR" INDICATES FEW OR NO CLOUDS BELOW 12,000 FEET WITH NO
SIGNIFICANT WEATHER AND/OR OBSTRUCTION TO VISIBILITY.

MIZ047>049-052>055-059>063-066>070-074>076-081>083-231600-
SOUTHEAST LOWER MICHIGAN

CITY           SKY/WX    TMP DP  RH WIND       PRES   REMARKS
ADRIAN         SUNNY     31  16  54 SE16      30.52F WCI  20
ALMA           MOSUNNY   32  21  64 SE7       30.51F WCI  26
ANN ARBOR      SUNNY     32  19  58 SE10      30.52F WCI  24
BAD AXE        SUNNY     31  16  53 S13       30.54F WCI  22
CARO           SUNNY     33  15  47 S12       30.52F WCI  25
DETROIT CITY   SUNNY     32  14  47 SE12      30.57F WCI  23
DETROIT        PTSUNNY   35  15  44 SE10      30.57F WCI  27
FLINT          SUNNY     33  13  43 SE15      30.52F WCI  23
GROSSE ILE     SUNNY     32  21  63 SE9       30.56F WCI  25
HILLSDALE      SUNNY     32  14  47 SE14      30.47F WCI  22
HOWELL         SUNNY     32  14  47 SE14      30.49F WCI  22

CITY           SKY/WX    TMP DP  RH WIND       PRES   REMARKS
JACKSON        SUNNY     33  15  47 S16G24    30.48F WCI  23
LAMBERTVILLE   SUNNY     34  13  41 E12G17    30.54S WCI  25
LANSING        CLOUDY    34  16  47 SE15      30.51R WCI  24
LAPEER         FAIR      33  12  42 SE9       30.53F WCI  25
MASON          CLOUDY    32  21  63 SE10      30.49S WCI  24
MONROE         SUNNY     33  20  58 E12       30.55S WCI  24
MT. CLEMENS    PTSUNNY   32  16  50 SE14      30.56S WCI  22
PONTIAC        MOSUNNY   31  10  41 SE12      30.51F WCI  22
PORT HOPE        N/A     32  19  58 S6        30.52F WCI  26
PORT HURON     SUNNY     32  10  40 S9        30.58F WCI  24
TRI CITIES     SUNNY     32  20  61 S9        30.52F WCI  24
MIDLAND        FAIR      34  18  52 S9        30.51F WCI  26
TROY           SUNNY     33   6  31 E10       30.57F WCI  24
SAGINAW HB     SUNNY     34  16  47 SE9       30.52F WCI  26
$$
MIZ043>046-050>051-056>058-064>065-071>073-077>080-231600-
SOUTHWEST LOWER MICHIGAN

CITY           SKY/WX    TMP DP  RH WIND       PRES   REMARKS
BATTLE CREEK   PTSUNNY   33  13  43 S9        30.48S WCI  25
BENTON HARBOR  CLOUDY    33  13  43 SE12G22   30.43F WCI  24
BIG RAPIDS     MOSUNNY   32  18  55 S7        30.45F WCI  26
COLDWATER      PTSUNNY   32   9  37 SE14G22   30.47F WCI  22
FREMONT        CLOUDY    33  16  48 SE9       30.45F WCI  26
HOLLAND        CLOUDY    35  17  47 SE8       30.46F WCI  29
GRAND RAPIDS   PTSUNNY   33  16  49 SE10      30.46F WCI  25
IONIA          FAIR      33  18  55 SE13      30.49S WCI  23
KALAMAZOO      CLOUDY    34  11  38 SE10      30.47F WCI  26
LUDINGTON      CLOUDY    33  17  52 SE12      30.43F WCI  24
MARSHALL       SUNNY     34  14  45 SE13G18   30.48S WCI  25
MOUNT PLEASANT MOSUNNY   32  19  57 S8        30.48F WCI  25
MUSKEGON       CLOUDY    35  15  44 SE13      30.45F WCI  26
SOUTH HAVEN    CLOUDY    33  14  45 SE10G18   30.44F WCI  25
$$
MIZ016>042-231600-
NORTHERN LOWER MICHIGAN

CITY           SKY/WX    TMP DP  RH WIND       PRES   REMARKS
ALPENA         MOSUNNY   33  15  47 S7        30.49F WCI  27
BEAVER ISLAND  CLOUDY    32  19  57 S9        30.43R WCI  25
BELLAIRE       PTSUNNY   34  13  41 S9        30.46S WCI  27
CADILLAC       MOSUNNY   32  13  45 S8        30.40F WCI  25
CHARLEVOIX     CLOUDY    33  15  47 S8        30.46F WCI  26
FRANKFORT      CLOUDY    33  15  47 SE12      30.43F WCI  24
GAYLORD        MOSUNNY   32  11  41 S10       30.42F WCI  24
GRAYLING       SUNNY     32  10  40 SE12      30.44F WCI  23
HARBOR SPRINGS MOSUNNY   33  15  45 SW5       30.44F WCI  29
HOUGHTON LAKE  CLOUDY    33  13  43 S10       30.45F WCI  25
MANISTEE       MOSUNNY   34  16  47 SE10      30.43F WCI  26
OSCODA         SUNNY     35  19  51 S9        30.50F WCI  27
PELLSTON       MOSUNNY   32  13  45 SE6       30.45F WCI  26
ROGERS CITY    MOSUNNY   35  15  44 S8        30.48F WCI  29
TRAVERSE CITY  CLOUDY    36  14  40 S10       30.43F WCI  28
$$
MIZ007>008-015-231600-
EASTERN UPPER MICHIGAN

CITY           SKY/WX    TMP DP  RH WIND       PRES   REMARKS
KINROSS        CLOUDY    29  18  63 SE12      30.44F WCI  19
MACKINAC ISLAN MOSUNNY   29  17  59 S5        30.44F WCI  24
NEWBERRY       CLOUDY    31  19  60 S13G18    30.39F WCI  21
S. S. MARIE    CLOUDY    26  16  65 SE7       30.43F WCI  18
MUNISING         N/A     32  23  69 S16G24    30.32F WCI  21
$$
MIZ004>006-011>014-085-231600-
CENTRAL UPPER MICHIGAN

CITY           SKY/WX    TMP DP  RH WIND       PRES   REMARKS
MANISTIQUE     CLOUDY    32  27  80 S12G18    30.39F WCI  23
ESCANABA       CLOUDY    31  26  82 S8        30.38F WCI  23
MENOMINEE        N/A    N/A N/A N/A MISG        N/A
SAWYER-GWINN   CLOUDY    27  19  74 S18       30.31F WCI  13
$$
MIZ001>003-009>011-084-231600-
WESTERN UPPER MICHIGAN

CITY           SKY/WX    TMP DP  RH WIND       PRES   REMARKS
IRON MOUNTAIN  FLURRIES  27  18  69 S8        30.30F WCI  19
HOUGHTON       CLOUDY    30  19  63 S12G20    30.21F WCI  20
COPPER HARBOR    N/A     32  20  61 SW9G22    30.24F WCI  24
IRONWOOD       CLOUDY    30  23  75 S12G23    30.13F WCI  20
$$

ABBREVIATIONS USED IN REMARKS
   TC - TEMPERATURE IN CELSIUS
  WCI - WIND CHILL INDEX
   HX - HEAT INDEX
  VSB - VISIBILITY




USA.gov is the U.S. government's official web portal to all federal, state and local government web resources and services.